Regional Weather Roundup
Issued by NWS Little Rock, AR

Home | Current Version | Previous Version | Graphics & Text | Print | Product List | Glossary On
Versions: 1 2 3 4 5 6 7 8 9 10 11 12 13 14 15 16 17 18 19 20 21 22 23 24 25 26 27 28 29 30 31 32 33 34 35 36 37 38 39 40 41 42 43 44 45 46 47 48 49 50
825
ASUS44 KLZK 282005
RWRLZK

WEATHER ROUNDUP FOR ARKANSAS
NATIONAL WEATHER SERVICE LITTLE ROCK AR
300 PM CDT SUN AUG 28 2016

NOTE: "FAIR" INDICATES FEW OR NO CLOUDS BELOW 12,000 FEET WITH NO
SIGNIFICANT WEATHER AND/OR OBSTRUCTIONS TO VISIBILITY.

ARZ001-003-010-029-282100-
NORTHWEST ARKANSAS

CITY           SKY/WX    TMP DP  RH WIND       PRES   REMARKS
FAYETTEVILLE   MOSUNNY   86  68  54 SE6       30.10F HX  89
FORT SMITH     CLOUDY    91  69  48 E9        30.04F HX  96
HARRISON       MOSUNNY   87  70  56 SE12      30.13F HX  92
BENTONVILLE    MOSUNNY   88  64  45 E9        30.11F HX  89
ROGERS         MOSUNNY   89  67  47 SE10      30.11F HX  92
SILOAM SPGS    MOSUNNY   90  64  43 SE6       30.12F HX  91
HIGHFILL       MOSUNNY   92  67  43 SE7       30.10F HX  95
SPRINGDALE     MOSUNNY   88  68  51 SE6       30.13F HX  91
$$

ARZ004-005-016-282100-
NORTH CENTRAL ARKANSAS

CITY           SKY/WX    TMP DP  RH WIND       PRES   REMARKS
BATESVILLE     PTSUNNY   91  73  55 E9        30.07F HX 100
FLIPPIN        PTSUNNY   91  70  49 E8        30.08F HX  97
MTN HOME       MOSUNNY   89  71  55 E7        30.10F HX  95
$$

ARZ040-041-282100-
WEST CENTRAL ARKANSAS

CITY           SKY/WX    TMP DP  RH WIND       PRES   REMARKS
MENA           CLOUDY    82  73  74 E6        30.09F HX  88
MOUNT IDA      CLOUDY    87  74  64 VRB3      30.05F HX  95
$$

ARZ009-017-025-026-028-282100-
NORTHEAST ARKANSAS

CITY           SKY/WX    TMP DP  RH WIND       PRES   REMARKS
CORNING          N/A     91  75  59 SE8       30.08F HX 102
JONESBORO      MOSUNNY   90  76  63 NE10      30.07F HX 101
NEWPORT        CLOUDY    93  76  57 E14       30.06F HX 105
WALNUT RIDGE   MOSUNNY   91  75  59 E12       30.07F HX 102
BLYTHEVILLE    SUNNY     92  78  63 NE6       30.07F HX 107
$$

ARZ022-023-033-042-044-282100-
CENTRAL ARKANSAS

CITY           SKY/WX    TMP DP  RH WIND       PRES   REMARKS
LITTLE ROCK    PTSUNNY   94  70  45 E15       30.04F HX 100
N LITTLE ROCK    N/A     92  72  51 E9        30.01F HX  99
JACKSONVILLE   SUNNY     93  74  53 CALM      30.04F HX 102
SEARCY         CLOUDY    92  77  61 VRB6      30.06F HX 105
HOT SPRINGS    CLOUDY    89  72  56 NE10      30.05F HX  96
RUSSELLVILLE   SUNNY     91  72  53 E8        30.04F HX  98
$$

ARZ036-282100-
EAST ARKANSAS

CITY           SKY/WX    TMP DP  RH WIND       PRES   REMARKS
WEST MEMPHIS   TSTM      85  74  69 N16G26    30.05F HX  92
$$

ARZ050-053-066-070-073-282100-
SOUTHWEST ARKANSAS

CITY           SKY/WX    TMP DP  RH WIND       PRES   REMARKS
ARKADELPHIA    FAIR      89  76  65 VRB5      30.02F HX 100
TEXARKANA      MOSUNNY   88  74  63 E3        30.02F HX  96
EL DORADO      TSTM      77  74  90 SW3       30.04R
DE QUEEN       PTSUNNY   91  75  59 MISG      30.01F HX 101
$$

ARZ056-057-069-282100-
SOUTHEAST ARKANSAS

CITY           SKY/WX    TMP DP  RH WIND       PRES   REMARKS
PINE BLUFF     MOSUNNY   92  70  48 E9        30.03F HX  97
STUTTGART      SUNNY     93  70  46 E9        30.04F HX  99
MONTICELLO     SUNNY     95  67  39 E7        30.02F HX  99

$$






USA.gov is the U.S. government's official web portal to all federal, state and local government web resources and services.